sat.trackr.live / text

‹ back to catalog

ONEWEB-0015

NORAD 61594 · 2024-188A

PAYLOAD ACTIVE UNKNOWN

§ Identity

Operator
Country
UK
Launch date
2024-10-20
Launch site
AFWTR
Launch vehicle
Mass (kg)
RCS (m²)

Purposes: comms

External: N2YO · Heavens-Above · Gunter

§ Orbital elements

Epoch: 2026-09-19T12:51:48.361824Z

Period
109.80 min
Inclination
87.8962°
Eccentricity
0.0002239
Mean motion
13.11417393 rev/d
Perigee alt
1,216.0 km
Apogee alt
1,219.4 km
Semi-major
7,595.8 km
B*
-1.4200e-3
RAAN
2.3337°
Arg perigee
109.6536°
Mean anomaly
250.4834°
Rev number
9,682

§ Raw data

ONEWEB-00151 61594U 24188A   26262.53597641 -.00000491  00000+0 -14200-2 0  99902 61594  87.8962   2.3337 0002239 109.6536 250.4834 13.11417393 96825

JSON: /api/v1/satellites/61594 · /tle

For live sub-satellite position, see the globe view (requires WebGL).

§ Visibility from observer

Set your observer location to see the next 7 days of passes ≥ 10°. The values pass through the URL so the page stays shareable.

No JS? Fill the form by hand. The geolocation button needs JavaScript.